User: anonymous   Login
Location: Dodgeville
(40.9429°N, 91.1809°W)
Time: 14:55:47
(UTC+00:00)
Language:

Envisat - Orbit

View from above orbital plane
View from above orbital plane
View from above satellite
View from above satellite

Ground track
Ground track

The orbit data is extracted from the following two-line orbital elements,

1 27386U 02009A   21163.21906957  .00000006  00000-0  15573-4 0  9990
2 27386  98.1483 157.5438 0001263  89.7657 281.1748 14.38029315 10321
Epoch (UTC): 12 June 2021 05:15:27
Eccentricity: 0.0001263
inclination: 98.1483°
perigee height: 764 km
apogee height: 766 km
right ascension of ascending node: 157.5438°
argument of perigee: 89.7657°
revolutions per day: 14.38029315
mean anomaly at epoch: 281.1748°
orbit number at epoch: 1032

The dashed part of the orbit path shows where the satellite is in the earth's shadow,  

DLR